This demonstration page uses our WeatherBlox Daily Observations layout. Learn more.

Left ArrowRight Arrow

Hourly Observations for March 23, 2021

Temp ( °F °C ) Dew Point ( °F °C ) Humidity (%) Winds ( mph kmh ) Pressure ( in mb ) Visibility ( mi km ) Precip ( " mm )
12:51 am 00:51 Clear 44 6.7 8 -13.3 23 23 NE 6 9 29.82 1010 10 16.0934 0 0
1:51 am 01:51 Clear 41 5 9 -12.8 27 27 E 5 7 29.81 1010 10 16.0934 0 0
2:51 am 02:51 Clear 37 2.8 8 -13.3 30 30 SSE 3 6 29.8 1009 10 16.0934 0 0
3:51 am 03:51 Clear 37 2.8 7 -13.9 28 28 ESE 3 6 29.78 1009 10 16.0934 0 0
4:51 am 04:51 Clear 38 3.3 9 -12.8 30 30 ESE 3 6 29.78 1008 10 16.0934 0 0
5:51 am 05:51 Clear 34 1.1 7 -13.9 32 32 ESE 6 9 29.78 1009 10 16.0934 0 0
6:51 am 06:51 Sunny 36 2.2 8 -13.3 31 31 SE 5 7 29.79 1009 10 16.0934 0 0
7:51 am 07:51 Sunny 50 10 12 -11.1 22 22 ESE 8 13 29.76 1008 10 16.0934 0 0
8:51 am 08:51 Partly Cloudy 54 12.2 10 -12.2 17 17 ESE 10 17 29.75 1007 10 16.0934 0 0
9:51 am 09:51 Cloudy 58 14.4 9 -12.8 14 14 SE 8 13 29.71 1006 10 16.0934 0 0
10:51 am 10:51 Mostly Sunny 62 16.7 8 -13.3 12 12 SSE 13 20 29.67 1005 10 16.0934 0 0
11:51 am 11:51 Partly Cloudy 67 19.4 15 -9.4 13 13 SSE 16 26 29.61 1003 10 16.0934 0 0
12:51 pm 12:51 Mostly Cloudy 68 20 14 -10 12 12 SSE 14 22 29.56 1001 10 16.0934 0 0
1:24 pm 13:24 Partly Cloudy 68 20 15 -9.4 13 13 SW 17 28 29.48 998 10 16.0934 0 0
1:51 pm 13:51 Mostly Cloudy 68 20 15 -9.4 13 13 VRB 7 11 29.51 999 10 16.0934 0 0
2:35 pm 14:35 Mostly Sunny 70 21.1 15 -9.4 12 12 W 12 19 29.42 996 10 16.0934 0 0
2:51 pm 14:51 Mostly Cloudy 69 20.6 15 -9.4 12 12 SW 13 20 29.49 999 10 16.0934 0 0
3:51 pm 15:51 Cloudy 65 18.3 21 -6.1 19 19 W 32 52 29.52 1000 10 16.0934 0 0
4:51 pm 16:51 Partly Cloudy 61 16.1 27 -2.8 27 27 W 31 50 29.56 1001 10 16.0934 0 0
5:51 pm 17:51 Sunny 56 13.3 28 -2.2 34 34 W 21 33 29.6 1002 10 16.0934 0 0
6:51 pm 18:51 Mostly Cloudy 47 8.3 40 4.4 77 77 WNW 22 35 29.67 1005 10 16.0934 0 0
7:51 pm 19:51 Cloudy 46 7.8 42 5.6 86 86 WNW 10 17 29.67 1005 10 16.0934 0.02 0.508
8:51 pm 20:51 Mostly Clear 44 6.7 42 5.6 93 93 WNW 8 13 29.67 1005 10 16.0934 0 0
9:51 pm 21:51 Mostly Cloudy 44 6.7 42 5.6 93 93 NNW 8 13 29.69 1005 10 16.0934 0 0
10:51 pm 22:51 Cloudy 46 7.8 41 5 83 83 NNW 3 6 29.68 1005 10 16.0934 0 0
11:51 pm 23:51 Cloudy 44 6.7 40 4.4 85 85 S 5 7 29.68 1005 10 16.0934 0 0

Powered by AerisWeather